Location: Unspecified
(58.7730°N, 5.8460°E)
Time: 01:06:12
(UTC+02:00)

Resurs 1-4 Rocket - Visible Passes

Search period start: 05 May 2016 00:00
Search period end: 15 May 2016 00:00
Orbit: 799 x 815 km, 98.4° (Epoch: 03 May)

Date Brightness Start Highest point End Pass type
(mag) Time Alt. Az. Time Alt. Az. Time Alt. Az.
05 May 4.5 03:06:47 10° NE 03:10:02 16° E 03:13:15 10° ESE visible
06 May 4.8 02:43:42 10° ENE 02:45:01 11° ENE 02:46:21 10° E visible
06 May 3.0 04:21:06 10° NNE 04:26:13 48° E 04:31:21 10° S visible
07 May 3.6 03:56:42 10° NNE 04:01:30 34° E 04:06:17 10° SSE visible
08 May 4.1 03:32:26 10° NE 03:36:41 24° E 03:40:55 10° SE visible
09 May 4.5 03:08:26 10° NE 03:11:47 17° E 03:15:08 10° ESE visible
10 May 4.7 02:45:10 10° ENE 02:46:48 11° ENE 02:48:26 10° E visible
11 May 3.5 03:58:24 10° NNE 04:03:15 35° E 04:08:05 10° SSE visible
12 May 4.1 03:34:07 10° NE 03:38:26 25° E 03:42:45 10° SE visible
13 May 4.5 03:10:05 10° NE 03:13:33 17° E 03:17:00 10° SE visible
14 May 4.7 02:46:41 10° ENE 02:48:34 12° ENE 02:50:27 10° E visible
